Location: Middle Street
(51.7167°N, 0.0333°E)
Time: 01:55:01
(UTC+00:00)

SKYMED 3 - Pass Details

Date: 20 January 2021
Orbit: 621 x 623 km, 97.9° (Epoch: 28 February)

Event Time Altitude Azimuth Distance (km) Brightness Sun altitude
Exits shadow 18:19:26 - 14° (NNE) 2,382 7.3 -16.8°
Reaches altitude 10° 18:20:20 10° 14° (NNE) 2,007 6.9 -16.9°
Maximum altitude 18:24:43 88° 99° (E) 631 4.5 -17.6°
Drops below altitude 10° 18:29:04 10° 195° (SSW) 1,990 7.5 -18.3°
Sets 18:31:14 0° 196° (SSW) 2,891 8.3 -18.6°
